Time,TemperatureF,DewpointF,PressureIn,WindDirection,WindDirectionDegrees,WindSpeedMPH,WindSpeedGustMPH,Humidity,HourlyPrecipIn,Conditions,Clouds,dailyrainin,SoftwareType,DateUTC
2013-02-15 00:00:00,36.3,13.8,17.72,SW,219,0.0,0.0,39,0.00,,---,0.08,VWS V13.01,2013-02-15 05:00:00,
2013-02-15 00:05:00,36.3,13.8,17.72,South,177,0.0,0.0,39,0.00,,---,0.00,VWS V13.01,2013-02-15 05:05:00,
2013-02-15 00:10:00,36.5,13.9,17.72,SSE,162,0.0,0.0,39,0.00,,---,0.00,VWS V13.01,2013-02-15 05:10:00,
2013-02-15 00:15:00,36.7,14.6,17.72,NW,326,0.0,0.0,40,0.00,,---,0.00,VWS V13.01,2013-02-15 05:15:00,
2013-02-15 00:20:00,36.7,14.1,17.72,SSW,199,0.0,0.0,39,0.00,,---,0.00,VWS V13.01,2013-02-15 05:20:00,
2013-02-15 00:25:00,36.9,14.8,17.72,SE,144,0.0,0.0,40,0.00,,---,0.00,VWS V13.01,2013-02-15 05:25:00,
2013-02-15 00:30:00,36.9,14.8,17.72,SSE,163,0.0,0.0,40,0.00,,---,0.00,VWS V13.01,2013-02-15 05:30:00,
2013-02-15 00:35:00,36.9,14.8,17.72,SSE,163,0.0,0.0,40,0.00,,---,0.00,VWS V13.01,2013-02-15 05:35:00,
2013-02-15 00:40:00,36.9,14.8,17.72,SSE,163,0.0,0.0,40,0.00,,---,0.00,VWS V13.01,2013-02-15 05:40:00,
2013-02-15 00:45:00,37.0,15.0,17.72,South,187,0.0,0.0,40,0.00,,---,0.00,VWS V13.01,2013-02-15 05:45:00,
2013-02-15 00:50:00,37.0,15.0,17.72,SSW,205,0.0,3.6,40,0.00,,---,0.00,VWS V13.01,2013-02-15 05:50:00,
2013-02-15 00:55:00,37.2,15.1,17.72,SSW,205,0.0,0.0,40,0.00,,---,0.00,VWS V13.01,2013-02-15 05:55:00,
2013-02-15 01:00:00,37.4,14.7,17.72,WNW,293,0.0,0.0,39,0.00,,---,0.00,VWS V13.01,2013-02-15 06:00:00,
2013-02-15 01:05:00,37.4,14.7,17.72,North,353,0.0,0.0,39,0.00,,---,0.00,VWS V13.01,2013-02-15 06:05:00,
2013-02-15 01:10:00,37.6,14.9,17.72,NW,309,4.5,4.5,39,0.00,,---,0.00,VWS V13.01,2013-02-15 06:10:00,
2013-02-15 01:15:00,37.9,15.2,17.72,SW,219,0.0,0.0,39,0.00,,---,0.00,VWS V13.01,2013-02-15 06:15:00,
2013-02-15 01:20:00,38.1,15.4,17.72,South,173,0.0,0.0,39,0.00,,---,0.00,VWS V13.01,2013-02-15 06:20:00,
2013-02-15 01:25:00,38.1,15.4,17.72,West,266,0.0,2.7,39,0.00,,---,0.00,VWS V13.01,2013-02-15 06:25:00,
2013-02-15 01:30:00,38.1,15.4,17.72,South,172,0.0,0.0,39,0.00,,---,0.00,VWS V13.01,2013-02-15 06:30:00,
2013-02-15 01:35:00,38.3,15.5,17.72,SW,233,0.0,0.0,39,0.00,,---,0.00,VWS V13.01,2013-02-15 06:35:00,
2013-02-15 01:40:00,38.3,15.5,17.72,West,274,0.0,0.0,39,0.00,,---,0.00,VWS V13.01,2013-02-15 06:40:00,
2013-02-15 01:45:00,38.3,15.5,17.72,WSW,244,0.0,0.0,39,0.00,,---,0.00,VWS V13.01,2013-02-15 06:45:00,
2013-02-15 01:50:00,38.3,15.5,17.72,North,353,0.0,0.0,39,0.00,,---,0.00,VWS V13.01,2013-02-15 06:50:00,
2013-02-15 01:55:00,38.1,15.4,17.72,SW,231,0.0,0.0,39,0.00,,---,0.00,VWS V13.01,2013-02-15 06:55:00,
2013-02-15 02:00:00,38.1,14.8,17.72,North,7,0.0,0.0,38,0.00,,---,0.00,VWS V13.01,2013-02-15 07:00:00,
2013-02-15 02:05:00,38.3,14.3,17.72,NE,35,0.0,0.0,37,0.00,,---,0.00,VWS V13.01,2013-02-15 07:05:00,
2013-02-15 02:10:00,38.3,13.1,17.72,WNW,297,0.0,3.1,35,0.00,,---,0.00,VWS V13.01,2013-02-15 07:10:00,
2013-02-15 02:15:00,38.3,12.4,17.72,West,277,0.0,0.0,34,0.00,,---,0.00,VWS V13.01,2013-02-15 07:15:00,
2013-02-15 02:20:00,38.1,11.6,17.72,SW,236,5.4,5.8,33,0.00,,---,0.00,VWS V13.01,2013-02-15 07:20:00,
2013-02-15 02:25:00,38.1,11.6,17.72,West,263,2.2,2.2,33,0.00,,---,0.00,VWS V13.01,2013-02-15 07:25:00,
2013-02-15 02:30:00,38.1,10.9,17.72,West,276,0.0,0.0,32,0.00,,---,0.00,VWS V13.01,2013-02-15 07:30:00,
2013-02-15 02:35:00,37.9,10.7,17.72,West,259,0.0,0.0,32,0.00,,---,0.00,VWS V13.01,2013-02-15 07:35:00,
2013-02-15 02:40:00,37.9,10.7,17.72,SSW,205,0.0,2.7,32,0.00,,---,0.00,VWS V13.01,2013-02-15 07:40:00,
2013-02-15 02:45:00,37.9,10.0,17.72,SSW,200,0.0,3.6,31,0.00,,---,0.00,VWS V13.01,2013-02-15 07:45:00,
2013-02-15 02:50:00,38.1,9.4,17.72,NNW,338,4.0,6.3,30,0.00,,---,0.00,VWS V13.01,2013-02-15 07:50:00,
2013-02-15 02:55:00,38.5,9.8,17.72,SW,226,0.0,4.0,30,0.00,,---,0.00,VWS V13.01,2013-02-15 07:55:00,
2013-02-15 03:00:00,38.8,9.3,17.72,WNW,299,5.4,5.4,29,0.00,,---,0.00,VWS V13.01,2013-02-15 08:00:00,
2013-02-15 03:05:00,38.8,9.3,17.72,WSW,253,2.7,4.0,29,0.00,,---,0.00,VWS V13.01,2013-02-15 08:05:00,
2013-02-15 03:10:00,38.8,9.3,17.72,North,8,2.2,4.9,29,0.00,,---,0.00,VWS V13.01,2013-02-15 08:10:00,
2013-02-15 03:15:00,39.0,7.1,17.72,ENE,78,3.1,6.3,26,0.00,,---,0.00,VWS V13.01,2013-02-15 08:15:00,
2013-02-15 03:20:00,39.0,5.3,17.72,West,263,4.0,5.8,24,0.00,,---,0.00,VWS V13.01,2013-02-15 08:20:00,
2013-02-15 03:25:00,39.0,5.3,17.72,SSE,154,0.0,3.1,24,0.00,,---,0.00,VWS V13.01,2013-02-15 08:25:00,
2013-02-15 03:30:00,38.8,5.2,17.72,South,186,2.7,3.6,24,0.00,,---,0.00,VWS V13.01,2013-02-15 08:30:00,
2013-02-15 03:35:00,38.8,5.2,17.72,WNW,290,4.5,4.5,24,0.00,,---,0.00,VWS V13.01,2013-02-15 08:35:00,
2013-02-15 03:40:00,38.8,2.3,17.72,SW,232,0.0,5.8,21,0.00,,---,0.00,VWS V13.01,2013-02-15 08:40:00,
2013-02-15 03:45:00,38.7,2.1,17.72,SW,230,4.0,4.0,21,0.00,,---,0.00,VWS V13.01,2013-02-15 08:45:00,
2013-02-15 03:50:00,38.7,2.1,17.72,WNW,291,3.1,8.3,21,0.00,,---,0.00,VWS V13.01,2013-02-15 08:50:00,
2013-02-15 03:55:00,38.7,2.1,17.72,NNW,335,4.0,4.0,21,0.00,,---,0.00,VWS V13.01,2013-02-15 08:55:00,
2013-02-15 04:00:00,38.5,2.0,17.72,West,280,4.0,4.0,21,0.00,,---,0.00,VWS V13.01,2013-02-15 09:00:00,
2013-02-15 04:05:00,38.5,-0.2,17.72,SSW,209,2.2,5.4,19,0.00,,---,0.00,VWS V13.01,2013-02-15 09:05:00,
2013-02-15 04:09:00,38.5,-0.2,17.72,WSW,246,2.2,3.6,19,0.00,,---,0.00,VWS V13.01,2013-02-15 09:09:00,
2013-02-15 04:14:00,38.3,-0.3,17.72,WSW,250,3.1,4.0,19,0.00,,---,0.00,VWS V13.01,2013-02-15 09:14:00,
2013-02-15 04:19:00,38.1,-0.5,17.72,NW,304,2.7,5.4,19,0.00,,---,0.00,VWS V13.01,2013-02-15 09:19:00,
2013-02-15 04:24:00,38.1,-0.5,17.72,NNW,335,0.0,5.8,19,0.00,,---,0.00,VWS V13.01,2013-02-15 09:24:00,
2013-02-15 04:29:00,37.9,-0.6,17.72,SSW,197,8.1,8.1,19,0.00,,---,0.00,VWS V13.01,2013-02-15 09:29:00,
2013-02-15 04:34:00,37.9,-0.6,17.72,WNW,291,0.0,2.7,19,0.00,,---,0.00,VWS V13.01,2013-02-15 09:34:00,
2013-02-15 04:39:00,37.8,-0.8,17.72,NW,305,2.2,7.2,19,0.00,,---,0.00,VWS V13.01,2013-02-15 09:39:00,
2013-02-15 04:44:00,37.8,-0.8,17.72,SW,220,3.6,7.2,19,0.00,,---,0.00,VWS V13.01,2013-02-15 09:44:00,
2013-02-15 04:49:00,37.8,-0.8,17.72,North,357,5.4,5.4,19,0.00,,---,0.00,VWS V13.01,2013-02-15 09:49:00,
2013-02-15 04:54:00,37.6,-0.9,17.72,NE,38,2.7,2.7,19,0.00,,---,0.00,VWS V13.01,2013-02-15 09:54:00,
2013-02-15 04:59:00,37.6,-0.9,17.72,SW,233,0.0,4.9,19,0.00,,---,0.00,VWS V13.01,2013-02-15 09:59:00,
2013-02-15 05:04:00,37.6,-0.9,17.72,WNW,285,0.0,2.7,19,0.00,,---,0.00,VWS V13.01,2013-02-15 10:04:00,
2013-02-15 05:09:00,37.6,-0.9,17.72,SSW,203,3.6,3.6,19,0.00,,---,0.00,VWS V13.01,2013-02-15 10:09:00,
2013-02-15 05:14:00,37.4,-1.1,17.72,West,265,7.2,7.2,19,0.00,,---,0.00,VWS V13.01,2013-02-15 10:14:00,
2013-02-15 05:19:00,37.6,-0.9,17.72,NE,51,0.0,2.2,19,0.00,,---,0.00,VWS V13.01,2013-02-15 10:19:00,
2013-02-15 05:24:00,37.4,-1.1,17.72,WSW,245,4.0,5.4,19,0.00,,---,0.00,VWS V13.01,2013-02-15 10:24:00,
2013-02-15 05:29:00,37.4,-1.1,17.72,SE,125,2.7,3.6,19,0.00,,---,0.00,VWS V13.01,2013-02-15 10:29:00,
2013-02-15 05:34:00,37.4,-1.1,17.72,West,276,2.2,2.7,19,0.00,,---,0.00,VWS V13.01,2013-02-15 10:34:00,
2013-02-15 05:39:00,37.4,-1.1,17.72,WNW,288,3.6,4.9,19,0.00,,---,0.00,VWS V13.01,2013-02-15 10:39:00,
2013-02-15 05:44:00,37.4,-1.1,17.72,WNW,292,4.0,4.0,19,0.00,,---,0.00,VWS V13.01,2013-02-15 10:44:00,
2013-02-15 05:49:00,37.4,-1.1,17.72,WNW,297,3.6,7.6,19,0.00,,---,0.00,VWS V13.01,2013-02-15 10:49:00,
2013-02-15 05:54:00,37.4,-1.1,17.72,NNW,329,0.0,2.7,19,0.00,,---,0.00,VWS V13.01,2013-02-15 10:54:00,
2013-02-15 05:59:00,37.4,-1.1,17.72,WNW,297,2.7,2.7,19,0.00,,---,0.00,VWS V13.01,2013-02-15 10:59:00,
2013-02-15 06:04:00,37.4,-1.1,17.72,ENE,65,4.0,4.0,19,0.00,,---,0.00,VWS V13.01,2013-02-15 11:04:00,
2013-02-15 06:10:00,37.2,-1.2,17.72,South,170,3.1,6.3,19,0.00,,---,0.00,VWS V13.01,2013-02-15 11:10:00,
2013-02-15 06:15:00,37.2,-1.2,17.72,ENE,74,0.0,6.3,19,0.00,,---,0.00,VWS V13.01,2013-02-15 11:15:00,
2013-02-15 06:20:00,37.2,-1.2,17.72,NW,312,4.0,6.3,19,0.00,,---,0.00,VWS V13.01,2013-02-15 11:20:00,
2013-02-15 06:25:00,37.2,-1.2,17.72,WSW,245,3.6,4.0,19,0.00,,---,0.00,VWS V13.01,2013-02-15 11:25:00,
2013-02-15 06:30:00,37.0,-1.4,17.72,North,10,0.0,3.1,19,0.00,,---,0.00,VWS V13.01,2013-02-15 11:30:00,
2013-02-15 06:35:00,37.0,-1.4,17.72,WNW,294,3.1,3.1,19,0.00,,---,0.00,VWS V13.01,2013-02-15 11:35:00,
2013-02-15 06:40:00,37.0,-1.4,17.72,SSW,199,0.0,0.0,19,0.00,,---,0.00,VWS V13.01,2013-02-15 11:40:00,
2013-02-15 06:45:00,37.0,-1.4,17.72,North,357,4.9,4.9,19,0.00,,---,0.00,VWS V13.01,2013-02-15 11:45:00,
2013-02-15 06:50:00,37.0,-1.4,17.72,NW,323,0.0,0.0,19,0.00,,---,0.00,VWS V13.01,2013-02-15 11:50:00,
2013-02-15 06:55:00,36.9,-1.5,17.72,SSW,195,0.0,2.2,19,0.00,,---,0.00,VWS V13.01,2013-02-15 11:55:00,
2013-02-15 07:00:00,36.9,-1.5,17.72,WNW,289,5.4,5.4,19,0.00,,---,0.00,VWS V13.01,2013-02-15 12:00:00,
2013-02-15 07:05:00,36.9,-1.5,17.72,NNE,33,3.6,5.8,19,0.00,,---,0.00,VWS V13.01,2013-02-15 12:05:00,
2013-02-15 07:10:00,36.7,-1.7,17.72,South,191,0.0,7.6,19,0.00,,---,0.00,VWS V13.01,2013-02-15 12:10:00,
2013-02-15 07:15:00,36.7,-1.7,17.72,West,261,2.7,4.0,19,0.00,,---,0.00,VWS V13.01,2013-02-15 12:15:00,
2013-02-15 07:20:00,36.7,-1.7,17.72,South,173,0.0,3.1,19,0.00,,---,0.00,VWS V13.01,2013-02-15 12:20:00,
2013-02-15 07:25:00,36.5,-1.8,17.72,WSW,258,4.0,6.3,19,0.00,,---,0.00,VWS V13.01,2013-02-15 12:25:00,
2013-02-15 07:30:00,36.5,-1.8,17.72,WNW,288,5.8,5.8,19,0.00,,---,0.00,VWS V13.01,2013-02-15 12:30:00,
2013-02-15 07:35:00,36.5,-1.8,17.72,West,260,0.0,3.6,19,0.00,,---,0.00,VWS V13.01,2013-02-15 12:35:00,
2013-02-15 07:40:00,36.3,-2.0,17.72,SSW,206,5.8,5.8,19,0.00,,---,0.00,VWS V13.01,2013-02-15 12:40:00,
2013-02-15 07:45:00,36.3,-2.0,17.72,WSW,238,0.0,5.8,19,0.00,,---,0.00,VWS V13.01,2013-02-15 12:45:00,
2013-02-15 07:50:00,36.1,-2.1,17.72,SW,234,2.7,7.6,19,0.00,,---,0.00,VWS V13.01,2013-02-15 12:50:00,
2013-02-15 07:55:00,36.1,-2.1,17.72,NW,322,3.1,5.4,19,0.00,,---,0.00,VWS V13.01,2013-02-15 12:55:00,
2013-02-15 08:00:00,36.1,-2.1,17.72,SW,227,3.1,3.1,19,0.00,,---,0.00,VWS V13.01,2013-02-15 13:00:00,
2013-02-15 08:05:00,36.1,-2.1,17.72,West,266,2.2,5.4,19,0.00,,---,0.00,VWS V13.01,2013-02-15 13:05:00,
2013-02-15 08:10:00,36.1,1.0,17.72,SSW,213,2.2,3.6,22,0.00,,---,0.00,VWS V13.01,2013-02-15 13:10:00,
2013-02-15 08:15:00,36.1,1.0,17.72,SW,218,2.7,2.7,22,0.00,,---,0.00,VWS V13.01,2013-02-15 13:15:00,
2013-02-15 08:20:00,36.1,-2.1,17.72,West,277,8.1,13.2,19,0.00,,---,0.00,VWS V13.01,2013-02-15 13:20:00,
2013-02-15 08:25:00,36.3,-2.0,17.72,NNE,31,3.6,3.6,19,0.00,,---,0.00,VWS V13.01,2013-02-15 13:25:00,
2013-02-15 08:30:00,36.3,-2.0,17.72,NE,37,2.2,2.7,19,0.00,,---,0.00,VWS V13.01,2013-02-15 13:30:00,
2013-02-15 08:35:00,36.3,-2.0,17.72,SW,236,2.7,2.7,19,0.00,,---,0.00,VWS V13.01,2013-02-15 13:35:00,
2013-02-15 08:40:00,36.7,-1.7,17.72,SSW,213,0.0,2.7,19,0.00,,---,0.00,VWS V13.01,2013-02-15 13:40:00,
2013-02-15 08:45:00,36.7,-1.7,17.72,West,278,3.1,6.3,19,0.00,,---,0.00,VWS V13.01,2013-02-15 13:45:00,
2013-02-15 08:50:00,36.7,-1.7,17.72,West,271,2.7,3.6,19,0.00,,---,0.00,VWS V13.01,2013-02-15 13:50:00,
2013-02-15 08:55:00,36.7,-1.7,17.72,North,2,2.7,4.0,19,0.00,,---,0.00,VWS V13.01,2013-02-15 13:55:00,
2013-02-15 09:00:00,36.7,-1.7,17.72,West,271,2.2,2.7,19,0.00,,---,0.00,VWS V13.01,2013-02-15 14:00:00,
2013-02-15 09:05:00,36.7,-1.7,17.72,NW,309,0.0,3.1,19,0.00,,---,0.00,VWS V13.01,2013-02-15 14:05:00,
2013-02-15 09:10:00,36.7,-1.7,17.72,West,259,2.7,2.7,19,0.00,,---,0.00,VWS V13.01,2013-02-15 14:10:00,
2013-02-15 09:15:00,36.7,-1.7,17.72,WSW,249,0.0,0.0,19,0.00,,---,0.00,VWS V13.01,2013-02-15 14:15:00,
2013-02-15 09:20:00,36.7,-1.7,17.72,SW,235,0.0,2.2,19,0.00,,---,0.00,VWS V13.01,2013-02-15 14:20:00,
2013-02-15 09:25:00,36.5,-1.8,17.72,NNW,343,3.1,3.1,19,0.00,,---,0.00,VWS V13.01,2013-02-15 14:25:00,
2013-02-15 09:30:00,36.3,-2.0,17.72,SSW,200,0.0,4.0,19,0.00,,---,0.00,VWS V13.01,2013-02-15 14:30:00,
2013-02-15 09:35:00,36.1,-2.1,17.72,NNE,31,3.6,5.4,19,0.00,,---,0.00,VWS V13.01,2013-02-15 14:35:00,
2013-02-15 09:40:00,36.1,-2.1,17.72,SSW,206,5.4,5.4,19,0.00,,---,0.00,VWS V13.01,2013-02-15 14:40:00,
2013-02-15 09:45:00,36.1,-2.1,17.72,NNE,27,0.0,3.1,19,0.00,,---,0.00,VWS V13.01,2013-02-15 14:45:00,
2013-02-15 09:50:00,36.1,-2.1,17.72,NW,306,3.6,5.8,19,0.00,,---,0.00,VWS V13.01,2013-02-15 14:50:00,
2013-02-15 09:55:00,36.1,-2.1,17.72,SW,230,5.8,6.7,19,0.00,,---,0.00,VWS V13.01,2013-02-15 14:55:00,
2013-02-15 10:00:00,36.1,-2.1,17.72,North,3,0.0,2.2,19,0.00,,---,0.00,VWS V13.01,2013-02-15 15:00:00,
2013-02-15 10:05:00,36.5,-1.8,17.72,South,180,3.6,4.0,19,0.00,,---,0.00,VWS V13.01,2013-02-15 15:05:00,
2013-02-15 10:10:00,37.0,-1.4,17.72,NNW,335,2.7,4.9,19,0.00,,---,0.00,VWS V13.01,2013-02-15 15:10:00,
2013-02-15 10:15:00,37.6,-0.9,17.72,North,5,6.3,8.3,19,0.00,,---,0.00,VWS V13.01,2013-02-15 15:15:00,
2013-02-15 10:20:00,37.8,-0.8,17.72,West,274,5.8,7.2,19,0.00,,---,0.00,VWS V13.01,2013-02-15 15:20:00,
2013-02-15 10:25:00,37.8,-0.8,17.72,SW,225,3.6,3.6,19,0.00,,---,0.00,VWS V13.01,2013-02-15 15:25:00,
2013-02-15 10:30:00,37.9,-0.6,17.72,West,267,3.6,6.3,19,0.00,,---,0.00,VWS V13.01,2013-02-15 15:30:00,
2013-02-15 10:35:00,37.9,-4.2,17.72,North,2,3.1,3.1,16,0.00,,---,0.00,VWS V13.01,2013-02-15 15:35:00,
2013-02-15 10:40:00,37.9,-4.2,17.72,West,277,4.0,8.3,16,0.00,,---,0.00,VWS V13.01,2013-02-15 15:40:00,
2013-02-15 10:45:00,38.1,-4.1,17.72,NNE,32,0.0,8.1,16,0.00,,---,0.00,VWS V13.01,2013-02-15 15:45:00,
2013-02-15 10:50:00,37.9,-4.2,17.72,SSW,209,0.0,5.4,16,0.00,,---,0.00,VWS V13.01,2013-02-15 15:50:00,
2013-02-15 10:55:00,38.3,-4.0,17.72,NW,306,0.0,2.2,16,0.00,,---,0.00,VWS V13.01,2013-02-15 15:55:00,
2013-02-15 11:00:00,38.5,-3.8,17.72,NNW,338,0.0,3.6,16,0.00,,---,0.00,VWS V13.01,2013-02-15 16:00:00,
2013-02-15 11:05:00,38.7,-3.7,17.72,North,357,2.7,5.8,16,0.00,,---,0.00,VWS V13.01,2013-02-15 16:05:00,
2013-02-15 11:10:00,38.5,-3.8,17.72,WNW,303,0.0,4.5,16,0.00,,---,0.00,VWS V13.01,2013-02-15 16:10:00,
2013-02-15 11:14:00,38.3,-4.0,17.72,West,261,4.0,10.1,16,0.00,,---,0.00,VWS V13.01,2013-02-15 16:14:00,
2013-02-15 11:20:00,37.9,-4.2,17.72,NNW,329,0.0,5.8,16,0.00,,---,0.00,VWS V13.01,2013-02-15 16:20:00,
2013-02-15 11:24:00,37.9,-4.2,17.72,SSE,155,4.0,4.0,16,0.00,,---,0.00,VWS V13.01,2013-02-15 16:24:00,
2013-02-15 11:29:00,37.9,-4.2,17.72,West,280,2.2,2.7,16,0.00,,---,0.00,VWS V13.01,2013-02-15 16:29:00,
2013-02-15 11:34:00,38.3,-4.0,17.72,WSW,238,2.7,4.9,16,0.00,,---,0.00,VWS V13.01,2013-02-15 16:34:00,
2013-02-15 11:39:00,38.1,-4.1,17.72,South,182,3.1,3.1,16,0.00,,---,0.00,VWS V13.01,2013-02-15 16:39:00,
2013-02-15 11:44:00,37.9,-4.2,17.72,NNE,18,2.7,5.4,16,0.00,,---,0.00,VWS V13.01,2013-02-15 16:44:00,
2013-02-15 11:49:00,37.6,-4.5,17.72,SSW,207,0.0,5.4,16,0.00,,---,0.00,VWS V13.01,2013-02-15 16:49:00,
2013-02-15 11:54:00,37.8,-4.4,17.72,WNW,291,5.8,5.8,16,0.00,,---,0.00,VWS V13.01,2013-02-15 16:54:00,
2013-02-15 11:59:00,37.9,-4.2,17.72,NNW,339,0.0,3.1,16,0.00,,---,0.00,VWS V13.01,2013-02-15 16:59:00,
2013-02-15 12:04:00,37.9,-4.2,17.72,WNW,303,6.7,6.7,16,0.00,,---,0.00,VWS V13.01,2013-02-15 17:04:00,
2013-02-15 12:09:00,38.1,-4.1,17.72,SSE,162,2.7,5.8,16,0.00,,---,0.00,VWS V13.01,2013-02-15 17:09:00,
2013-02-15 12:14:00,38.7,-3.7,17.72,WNW,284,3.1,5.4,16,0.00,,---,0.00,VWS V13.01,2013-02-15 17:14:00,
2013-02-15 12:19:00,39.0,-3.4,17.72,WNW,282,2.7,3.6,16,0.00,,---,0.00,VWS V13.01,2013-02-15 17:19:00,
2013-02-15 12:24:00,39.0,-3.4,17.72,NNW,328,3.6,3.6,16,0.00,,---,0.00,VWS V13.01,2013-02-15 17:24:00,
2013-02-15 12:29:00,39.0,-3.4,17.72,West,279,3.1,5.4,16,0.00,,---,0.00,VWS V13.01,2013-02-15 17:29:00,
2013-02-15 12:34:00,38.8,-3.5,17.72,WSW,249,0.0,7.6,16,0.00,,---,0.00,VWS V13.01,2013-02-15 17:34:00,
2013-02-15 12:39:00,39.0,-3.4,17.72,South,188,6.3,8.3,16,0.00,,---,0.00,VWS V13.01,2013-02-15 17:39:00,
2013-02-15 12:44:00,39.2,-3.2,17.72,WSW,250,2.2,6.3,16,0.00,,---,0.00,VWS V13.01,2013-02-15 17:44:00,
2013-02-15 12:49:00,39.6,-2.9,17.72,SW,226,4.0,4.0,16,0.00,,---,0.00,VWS V13.01,2013-02-15 17:49:00,
2013-02-15 12:54:00,39.7,-2.8,17.72,WNW,297,0.0,4.0,16,0.00,,---,0.00,VWS V13.01,2013-02-15 17:54:00,
2013-02-15 12:59:00,40.3,-2.3,17.72,West,260,4.0,4.0,16,0.00,,---,0.00,VWS V13.01,2013-02-15 17:59:00,
2013-02-15 13:04:00,40.1,-2.5,17.72,WNW,303,0.0,0.0,16,0.00,,---,0.00,VWS V13.01,2013-02-15 18:04:00,
2013-02-15 13:09:00,40.1,-2.5,17.72,West,271,6.3,6.3,16,0.00,,---,0.00,VWS V13.01,2013-02-15 18:09:00,
2013-02-15 13:14:00,39.4,-3.1,17.72,SSW,206,0.0,4.0,16,0.00,,---,0.00,VWS V13.01,2013-02-15 18:14:00,
2013-02-15 13:19:00,38.7,-3.7,17.72,ESE,114,3.1,3.6,16,0.00,,---,0.00,VWS V13.01,2013-02-15 18:19:00,
2013-02-15 13:24:00,38.1,-4.1,17.72,SW,232,0.0,2.2,16,0.00,,---,0.00,VWS V13.01,2013-02-15 18:24:00,
2013-02-15 13:29:00,38.1,-4.1,17.72,WNW,300,2.2,3.6,16,0.00,,---,0.00,VWS V13.01,2013-02-15 18:29:00,
2013-02-15 13:34:00,38.3,-4.0,17.72,West,274,5.4,6.3,16,0.00,,---,0.00,VWS V13.01,2013-02-15 18:34:00,
2013-02-15 13:39:00,37.9,-4.2,17.72,SW,233,0.0,5.4,16,0.00,,---,0.00,VWS V13.01,2013-02-15 18:39:00,
2013-02-15 13:44:00,37.9,-4.2,17.72,West,260,0.0,2.7,16,0.00,,---,0.00,VWS V13.01,2013-02-15 18:44:00,
2013-02-15 13:49:00,37.8,-4.4,17.72,ENE,61,0.0,2.7,16,0.00,,---,0.00,VWS V13.01,2013-02-15 18:49:00,
2013-02-15 13:54:00,37.6,-4.5,17.72,West,275,0.0,4.0,16,0.00,,---,0.00,VWS V13.01,2013-02-15 18:54:00,
2013-02-15 13:59:00,37.4,-4.7,17.72,North,8,4.0,6.3,16,0.00,,---,0.00,VWS V13.01,2013-02-15 18:59:00,
2013-02-15 14:04:00,37.4,-4.7,17.72,West,275,2.2,4.9,16,0.00,,---,0.00,VWS V13.01,2013-02-15 19:04:00,
2013-02-15 14:09:00,37.4,-4.7,17.72,SSW,193,0.0,9.6,16,0.00,,---,0.00,VWS V13.01,2013-02-15 19:09:00,
2013-02-15 14:14:00,37.4,-4.7,17.72,SSW,203,3.1,3.6,16,0.00,,---,0.00,VWS V13.01,2013-02-15 19:14:00,
2013-02-15 14:19:00,37.6,-4.5,17.72,South,175,0.0,0.0,16,0.00,,---,0.00,VWS V13.01,2013-02-15 19:19:00,
2013-02-15 14:24:00,37.6,-4.5,17.72,East,79,3.6,3.6,16,0.00,,---,0.00,VWS V13.01,2013-02-15 19:24:00,
2013-02-15 14:29:00,37.4,-4.7,17.72,WNW,284,2.2,3.1,16,0.00,,---,0.00,VWS V13.01,2013-02-15 19:29:00,
2013-02-15 14:34:00,37.4,-4.7,17.72,NNW,338,4.0,4.0,16,0.00,,---,0.00,VWS V13.01,2013-02-15 19:34:00,
2013-02-15 14:39:00,37.4,-4.7,17.72,West,266,2.2,3.1,16,0.00,,---,0.00,VWS V13.01,2013-02-15 19:39:00,
2013-02-15 14:44:00,37.6,-4.5,17.72,West,278,3.1,5.8,16,0.00,,---,0.00,VWS V13.01,2013-02-15 19:44:00,
2013-02-15 14:49:00,38.1,-4.1,17.72,SSE,163,3.6,6.3,16,0.00,,---,0.00,VWS V13.01,2013-02-15 19:49:00,
2013-02-15 14:54:00,38.1,-4.1,17.72,SW,223,4.0,5.8,16,0.00,,---,0.00,VWS V13.01,2013-02-15 19:54:00,
2013-02-15 14:59:00,38.3,-4.0,17.72,NNE,30,5.4,6.3,16,0.00,,---,0.00,VWS V13.01,2013-02-15 19:59:00,
2013-02-15 15:04:00,38.1,-4.1,17.72,SW,214,0.0,4.0,16,0.00,,---,0.00,VWS V13.01,2013-02-15 20:04:00,
2013-02-15 15:09:00,38.1,-4.1,17.72,WNW,297,2.2,2.2,16,0.00,,---,0.00,VWS V13.01,2013-02-15 20:09:00,
2013-02-15 15:14:00,37.8,-4.4,17.72,West,278,0.0,0.0,16,0.00,,---,0.00,VWS V13.01,2013-02-15 20:14:00,
2013-02-15 15:19:00,37.0,-3.7,17.72,ENE,57,0.0,4.0,17,0.00,,---,0.00,VWS V13.01,2013-02-15 20:19:00,
2013-02-15 15:24:00,36.7,-4.0,17.72,SSW,194,4.0,5.8,17,0.00,,---,0.00,VWS V13.01,2013-02-15 20:24:00,
2013-02-15 15:29:00,36.3,-4.3,17.72,WSW,250,5.8,5.8,17,0.00,,---,0.00,VWS V13.01,2013-02-15 20:29:00,
2013-02-15 15:34:00,36.1,-4.5,17.72,NW,308,3.1,3.1,17,0.00,,---,0.00,VWS V13.01,2013-02-15 20:34:00,
2013-02-15 15:39:00,36.0,-4.6,17.72,NNW,343,4.0,4.0,17,0.00,,---,0.00,VWS V13.01,2013-02-15 20:39:00,
2013-02-15 15:45:00,35.8,-4.8,17.72,West,261,0.0,0.0,17,0.00,,---,0.00,VWS V13.01,2013-02-15 20:45:00,
2013-02-15 15:50:00,35.6,-4.9,17.72,WSW,251,3.6,3.6,17,0.00,,---,0.00,VWS V13.01,2013-02-15 20:50:00,
2013-02-15 15:55:00,35.4,-5.1,17.72,WSW,252,0.0,0.0,17,0.00,,---,0.00,VWS V13.01,2013-02-15 20:55:00,
2013-02-15 16:00:00,35.4,-5.1,17.72,West,272,3.6,3.6,17,0.00,,---,0.00,VWS V13.01,2013-02-15 21:00:00,
2013-02-15 16:05:00,35.2,-5.2,17.72,WSW,254,0.0,0.0,17,0.00,,---,0.00,VWS V13.01,2013-02-15 21:05:00,
2013-02-15 16:10:00,35.1,-5.3,17.72,NNE,22,0.0,0.0,17,0.00,,---,0.00,VWS V13.01,2013-02-15 21:10:00,
2013-02-15 16:15:00,34.9,-5.5,17.72,NNW,328,0.0,0.0,17,0.00,,---,0.00,VWS V13.01,2013-02-15 21:15:00,
2013-02-15 16:20:00,34.9,-5.5,17.72,NE,51,2.2,5.8,17,0.00,,---,0.00,VWS V13.01,2013-02-15 21:20:00,
2013-02-15 16:25:00,34.9,-5.5,17.72,North,9,0.0,0.0,17,0.00,,---,0.00,VWS V13.01,2013-02-15 21:25:00,
2013-02-15 16:30:00,34.9,-5.5,17.72,North,8,0.0,0.0,17,0.00,,---,0.00,VWS V13.01,2013-02-15 21:30:00,
2013-02-15 16:35:00,34.7,-5.6,17.72,SW,228,4.0,4.0,17,0.00,,---,0.00,VWS V13.01,2013-02-15 21:35:00,
2013-02-15 16:40:00,34.5,-5.8,17.72,WSW,251,3.1,3.1,17,0.00,,---,0.00,VWS V13.01,2013-02-15 21:40:00,
2013-02-15 16:45:00,34.5,-5.8,17.72,NNE,19,0.0,2.7,17,0.00,,---,0.00,VWS V13.01,2013-02-15 21:45:00,
2013-02-15 16:50:00,34.3,-5.9,17.72,West,275,0.0,0.0,17,0.00,,---,0.00,VWS V13.01,2013-02-15 21:50:00,
2013-02-15 16:55:00,34.3,-5.9,17.72,SSE,167,0.0,0.0,17,0.00,,---,0.00,VWS V13.01,2013-02-15 21:55:00,
2013-02-15 17:00:00,34.2,-6.1,17.72,North,5,3.6,3.6,17,0.00,,---,0.00,VWS V13.01,2013-02-15 22:00:00,
2013-02-15 17:05:00,34.2,-6.1,17.72,NNE,15,0.0,0.0,17,0.00,,---,0.00,VWS V13.01,2013-02-15 22:05:00,
2013-02-15 17:10:00,34.0,-6.2,17.72,SSW,195,0.0,2.2,17,0.00,,---,0.00,VWS V13.01,2013-02-15 22:10:00,
2013-02-15 17:15:00,34.0,-6.2,17.72,West,262,0.0,0.0,17,0.00,,---,0.00,VWS V13.01,2013-02-15 22:15:00,
2013-02-15 17:20:00,33.8,-6.4,17.72,NW,320,3.1,5.4,17,0.00,,---,0.00,VWS V13.01,2013-02-15 22:20:00,
2013-02-15 17:25:00,33.6,-5.3,17.72,WNW,300,0.0,4.0,18,0.00,,---,0.00,VWS V13.01,2013-02-15 22:25:00,
2013-02-15 17:30:00,33.6,-5.3,17.72,NNE,21,0.0,5.4,18,0.00,,---,0.00,VWS V13.01,2013-02-15 22:30:00,
2013-02-15 17:35:00,33.4,-5.5,17.72,West,275,3.1,3.1,18,0.00,,---,0.00,VWS V13.01,2013-02-15 22:35:00,
2013-02-15 17:40:00,33.4,-5.5,17.72,SW,231,0.0,0.0,18,0.00,,---,0.00,VWS V13.01,2013-02-15 22:40:00,
2013-02-15 17:45:00,33.3,-5.7,17.72,NE,43,0.0,0.0,18,0.00,,---,0.00,VWS V13.01,2013-02-15 22:45:00,
2013-02-15 17:50:00,33.1,-5.8,17.72,WSW,257,0.0,0.0,18,0.00,,---,0.00,VWS V13.01,2013-02-15 22:50:00,
2013-02-15 17:55:00,33.1,-5.8,17.72,West,275,0.0,2.2,18,0.00,,---,0.00,VWS V13.01,2013-02-15 22:55:00,
2013-02-15 18:00:00,32.9,-5.9,17.72,West,277,0.0,0.0,18,0.00,,---,0.00,VWS V13.01,2013-02-15 23:00:00,
2013-02-15 18:05:00,32.7,-6.1,17.72,WNW,285,2.2,2.2,18,0.00,,---,0.00,VWS V13.01,2013-02-15 23:05:00,
2013-02-15 18:10:00,32.5,-6.2,17.72,West,279,0.0,0.0,18,0.00,,---,0.00,VWS V13.01,2013-02-15 23:10:00,
2013-02-15 18:15:00,32.5,-6.2,17.72,SSW,204,0.0,0.0,18,0.00,,---,0.00,VWS V13.01,2013-02-15 23:15:00,
2013-02-15 18:20:00,32.4,-6.4,17.72,West,260,0.0,0.0,18,0.00,,---,0.00,VWS V13.01,2013-02-15 23:20:00,
2013-02-15 18:25:00,32.4,-6.4,17.72,NW,318,0.0,0.0,18,0.00,,---,0.00,VWS V13.01,2013-02-15 23:25:00,
2013-02-15 18:30:00,32.4,-6.4,17.72,West,265,0.0,0.0,18,0.00,,---,0.00,VWS V13.01,2013-02-15 23:30:00,
2013-02-15 18:35:00,32.2,-6.6,17.72,NW,325,0.0,4.0,18,0.00,,---,0.00,VWS V13.01,2013-02-15 23:35:00,
2013-02-15 18:40:00,31.8,-6.8,17.72,WNW,300,0.0,0.0,18,0.00,,---,0.00,VWS V13.01,2013-02-15 23:40:00,
2013-02-15 18:45:00,31.5,-7.2,17.72,West,274,0.0,0.0,18,0.00,,---,0.00,VWS V13.01,2013-02-15 23:45:00,
2013-02-15 18:50:00,31.1,-7.4,17.72,West,263,0.0,0.0,18,0.00,,---,0.00,VWS V13.01,2013-02-15 23:50:00,
2013-02-15 18:55:00,30.9,-7.6,17.72,West,263,0.0,0.0,18,0.00,,---,0.00,VWS V13.01,2013-02-15 23:55:00,
2013-02-15 19:00:00,30.6,-7.9,17.72,North,8,0.0,0.0,18,0.00,,---,0.00,VWS V13.01,2013-02-16 00:00:00,
2013-02-15 19:05:00,30.2,-8.2,17.72,NNE,18,0.0,0.0,18,0.00,,---,0.00,VWS V13.01,2013-02-16 00:05:00,
2013-02-15 19:10:00,30.0,-8.3,17.72,North,5,0.0,2.7,18,0.00,,---,0.00,VWS V13.01,2013-02-16 00:10:00,
2013-02-15 19:15:00,29.8,-8.5,17.72,NNE,18,0.0,0.0,18,0.00,,---,0.00,VWS V13.01,2013-02-16 00:15:00,
2013-02-15 19:20:00,29.5,-8.8,17.72,West,276,0.0,3.1,18,0.00,,---,0.00,VWS V13.01,2013-02-16 00:20:00,
2013-02-15 19:25:00,29.5,-8.8,17.72,NW,307,0.0,0.0,18,0.00,,---,0.00,VWS V13.01,2013-02-16 00:25:00,
2013-02-15 19:30:00,29.3,-8.9,17.72,NW,325,0.0,0.0,18,0.00,,---,0.00,VWS V13.01,2013-02-16 00:30:00,
2013-02-15 19:35:00,29.3,-8.9,17.72,NNW,338,0.0,3.1,18,0.00,,---,0.00,VWS V13.01,2013-02-16 00:35:00,
2013-02-15 19:40:00,29.3,-8.9,17.72,NW,316,0.0,0.0,18,0.00,,---,0.00,VWS V13.01,2013-02-16 00:40:00,
2013-02-15 19:45:00,29.5,-8.8,17.72,West,278,2.2,2.7,18,0.00,,---,0.00,VWS V13.01,2013-02-16 00:45:00,
2013-02-15 19:50:00,29.5,-8.8,17.72,North,357,0.0,2.2,18,0.00,,---,0.00,VWS V13.01,2013-02-16 00:50:00,
2013-02-15 19:55:00,29.5,-8.8,17.72,North,9,2.2,2.7,18,0.00,,---,0.00,VWS V13.01,2013-02-16 00:55:00,
2013-02-15 20:00:00,29.5,-8.8,17.72,SW,229,0.0,3.1,18,0.00,,---,0.00,VWS V13.01,2013-02-16 01:00:00,
2013-02-15 20:05:00,29.3,-8.9,17.72,NNE,13,0.0,0.0,18,0.00,,---,0.00,VWS V13.01,2013-02-16 01:05:00,
2013-02-15 20:10:00,29.1,-9.1,17.72,WNW,297,0.0,0.0,18,0.00,,---,0.00,VWS V13.01,2013-02-16 01:10:00,
2013-02-15 20:15:00,29.1,-9.1,17.72,WNW,284,0.0,3.1,18,0.00,,---,0.00,VWS V13.01,2013-02-16 01:15:00,
2013-02-15 20:20:00,28.9,-9.2,17.72,WNW,285,0.0,0.0,18,0.00,,---,0.00,VWS V13.01,2013-02-16 01:20:00,
2013-02-15 20:25:00,28.9,-9.2,17.72,East,90,0.0,5.4,18,0.00,,---,0.00,VWS V13.01,2013-02-16 01:25:00,
2013-02-15 20:30:00,28.8,-9.4,17.72,WNW,284,3.6,4.9,18,0.00,,---,0.00,VWS V13.01,2013-02-16 01:30:00,
2013-02-15 20:35:00,28.6,-9.5,17.72,WNW,287,2.7,5.8,18,0.00,,---,0.00,VWS V13.01,2013-02-16 01:35:00,
2013-02-15 20:40:00,28.6,-9.5,17.72,WSW,244,3.1,3.6,18,0.00,,---,0.00,VWS V13.01,2013-02-16 01:40:00,
2013-02-15 20:45:00,28.6,-9.5,17.72,NNE,30,0.0,3.6,18,0.00,,---,0.00,VWS V13.01,2013-02-16 01:45:00,
2013-02-15 20:50:00,28.6,-9.5,17.72,West,279,2.2,6.3,18,0.00,,---,0.00,VWS V13.01,2013-02-16 01:50:00,
2013-02-15 20:55:00,28.6,-9.5,17.72,WNW,302,2.7,2.7,18,0.00,,---,0.00,VWS V13.01,2013-02-16 01:55:00,
2013-02-15 21:00:00,28.6,-9.5,17.72,West,267,0.0,3.1,18,0.00,,---,0.00,VWS V13.01,2013-02-16 02:00:00,
2013-02-15 21:05:00,28.4,-9.7,17.72,NW,310,0.0,2.2,18,0.00,,---,0.00,VWS V13.01,2013-02-16 02:05:00,
2013-02-15 21:10:00,28.4,-9.7,17.72,NW,304,0.0,0.0,18,0.00,,---,0.00,VWS V13.01,2013-02-16 02:10:00,
2013-02-15 21:15:00,28.4,-9.7,17.72,NW,310,0.0,9.2,18,0.00,,---,0.00,VWS V13.01,2013-02-16 02:15:00,
2013-02-15 21:20:00,28.2,-9.8,17.72,NE,40,3.1,3.1,18,0.00,,---,0.00,VWS V13.01,2013-02-16 02:20:00,
2013-02-15 21:25:00,28.2,-9.8,17.72,WNW,294,0.0,2.2,18,0.00,,---,0.00,VWS V13.01,2013-02-16 02:25:00,
2013-02-15 21:30:00,28.2,-9.8,17.72,WSW,246,0.0,0.0,18,0.00,,---,0.00,VWS V13.01,2013-02-16 02:30:00,
2013-02-15 21:35:00,28.0,-10.0,17.72,NE,54,0.0,0.0,18,0.00,,---,0.00,VWS V13.01,2013-02-16 02:35:00,
2013-02-15 21:40:00,28.0,-10.0,17.72,WSW,252,0.0,0.0,18,0.00,,---,0.00,VWS V13.01,2013-02-16 02:40:00,
2013-02-15 21:45:00,27.9,-10.1,17.72,West,263,5.4,5.4,18,0.00,,---,0.00,VWS V13.01,2013-02-16 02:45:00,
2013-02-15 21:50:00,27.9,-10.1,17.72,WNW,286,0.0,2.2,18,0.00,,---,0.00,VWS V13.01,2013-02-16 02:50:00,
2013-02-15 21:55:00,27.9,-10.1,17.72,NNE,26,3.1,3.1,18,0.00,,---,0.00,VWS V13.01,2013-02-16 02:55:00,
2013-02-15 22:00:00,27.7,-10.3,17.72,NE,34,0.0,2.7,18,0.00,,---,0.00,VWS V13.01,2013-02-16 03:00:00,
2013-02-15 22:05:00,27.5,-10.4,17.72,SW,227,2.7,3.1,18,0.00,,---,0.00,VWS V13.01,2013-02-16 03:05:00,
2013-02-15 22:10:00,27.3,-10.6,17.72,North,3,0.0,0.0,18,0.00,,---,0.00,VWS V13.01,2013-02-16 03:10:00,
2013-02-15 22:15:00,27.1,-10.7,17.72,WNW,289,3.1,3.1,18,0.00,,---,0.00,VWS V13.01,2013-02-16 03:15:00,
2013-02-15 22:20:00,27.0,-10.9,17.72,SW,217,0.0,0.0,18,0.00,,---,0.00,VWS V13.01,2013-02-16 03:20:00,
2013-02-15 22:25:00,26.8,-11.0,17.72,WNW,297,0.0,3.6,18,0.00,,---,0.00,VWS V13.01,2013-02-16 03:25:00,
2013-02-15 22:30:00,26.6,-10.1,17.72,NW,305,0.0,0.0,19,0.00,,---,0.00,VWS V13.01,2013-02-16 03:30:00,
2013-02-15 22:35:00,26.4,-10.2,17.72,North,7,0.0,0.0,19,0.00,,---,0.00,VWS V13.01,2013-02-16 03:35:00,
2013-02-15 22:40:00,26.4,-10.2,17.72,WNW,284,0.0,0.0,19,0.00,,---,0.00,VWS V13.01,2013-02-16 03:40:00,
2013-02-15 22:45:00,26.2,-10.4,17.72,WSW,256,0.0,0.0,19,0.00,,---,0.00,VWS V13.01,2013-02-16 03:45:00,
2013-02-15 22:50:00,26.1,-10.5,17.72,NNW,339,0.0,0.0,19,0.00,,---,0.00,VWS V13.01,2013-02-16 03:50:00,
2013-02-15 22:55:00,26.1,-10.5,17.72,WSW,247,2.7,2.7,19,0.00,,---,0.00,VWS V13.01,2013-02-16 03:55:00,
2013-02-15 23:00:00,26.1,-10.5,17.72,West,269,0.0,0.0,19,0.00,,---,0.00,VWS V13.01,2013-02-16 04:00:00,
2013-02-15 23:05:00,26.1,-10.5,17.72,West,278,0.0,0.0,19,0.00,,---,0.00,VWS V13.01,2013-02-16 04:05:00,
2013-02-15 23:10:00,26.1,-10.5,17.72,West,278,2.2,4.0,19,0.00,,---,0.00,VWS V13.01,2013-02-16 04:10:00,
2013-02-15 23:15:00,26.1,-10.5,17.72,WSW,256,0.0,0.0,19,0.00,,---,0.00,VWS V13.01,2013-02-16 04:15:00,
2013-02-15 23:20:00,26.1,-10.5,17.72,WSW,238,0.0,0.0,19,0.00,,---,0.00,VWS V13.01,2013-02-16 04:20:00,
2013-02-15 23:25:00,25.9,-10.7,17.72,WSW,249,2.7,4.0,19,0.00,,---,0.00,VWS V13.01,2013-02-16 04:25:00,
2013-02-15 23:30:00,25.9,-10.7,17.72,West,260,0.0,4.0,19,0.00,,---,0.00,VWS V13.01,2013-02-16 04:30:00,
2013-02-15 23:35:00,25.7,-10.9,17.72,North,3,2.7,2.7,19,0.00,,---,0.00,VWS V13.01,2013-02-16 04:35:00,
2013-02-15 23:40:00,25.5,-11.0,17.72,NNE,21,0.0,3.1,19,0.00,,---,0.00,VWS V13.01,2013-02-16 04:40:00,
2013-02-15 23:45:00,25.3,-11.1,17.72,West,265,0.0,0.0,19,0.00,,---,0.00,VWS V13.01,2013-02-16 04:45:00,
2013-02-15 23:50:00,25.3,-11.1,17.72,South,184,0.0,0.0,19,0.00,,---,0.00,VWS V13.01,2013-02-16 04:50:00,
2013-02-15 23:55:00,25.2,-11.3,17.72,West,281,0.0,0.0,19,0.00,,---,0.00,VWS V13.01,2013-02-16 04:55:00,